Year,Month,Day,Hour,Minute,Value (Times are PST for temperature in C)
2018,04,23,00,00,4.90
2018,04,23,00,01,4.80
2018,04,23,00,02,4.80
2018,04,23,00,03,4.80
2018,04,23,00,04,4.80
2018,04,23,00,05,4.80
2018,04,23,00,06,4.80
2018,04,23,00,07,4.80
2018,04,23,00,08,4.80
2018,04,23,00,09,4.80
2018,04,23,00,10,4.80
2018,04,23,00,11,4.80
2018,04,23,00,12,4.70
2018,04,23,00,13,4.70
2018,04,23,00,14,4.70
2018,04,23,00,15,4.80
2018,04,23,00,16,4.80
2018,04,23,00,17,4.80
2018,04,23,00,18,4.80
2018,04,23,00,19,4.80
2018,04,23,00,20,4.80
2018,04,23,00,21,4.80
2018,04,23,00,22,4.80
2018,04,23,00,23,4.80
2018,04,23,00,24,4.70
2018,04,23,00,25,4.70
2018,04,23,00,26,4.70
2018,04,23,00,27,4.70
2018,04,23,00,28,4.70
2018,04,23,00,29,4.70
2018,04,23,00,30,4.70
2018,04,23,00,31,4.70
2018,04,23,00,32,4.70
2018,04,23,00,33,4.70
2018,04,23,00,34,4.70
2018,04,23,00,35,4.70
2018,04,23,00,36,4.70
2018,04,23,00,37,4.70
2018,04,23,00,38,4.70
2018,04,23,00,39,4.70
2018,04,23,00,40,4.70
2018,04,23,00,41,4.80
2018,04,23,00,42,4.80
2018,04,23,00,43,4.90
2018,04,23,00,44,5.00
2018,04,23,00,45,5.10
2018,04,23,00,46,5.20
2018,04,23,00,47,5.30
2018,04,23,00,48,5.30
2018,04,23,00,49,5.40
2018,04,23,00,50,5.50
2018,04,23,00,51,5.50
2018,04,23,00,52,5.50
2018,04,23,00,53,5.50
2018,04,23,00,54,5.60
2018,04,23,00,55,5.60
2018,04,23,00,56,5.60
2018,04,23,00,57,5.50
2018,04,23,00,58,5.50
2018,04,23,00,59,5.50
2018,04,23,01,00,5.40
2018,04,23,01,01,5.40
2018,04,23,01,02,5.30
2018,04,23,01,03,5.30
2018,04,23,01,04,5.30
2018,04,23,01,05,5.20
2018,04,23,01,06,5.20
2018,04,23,01,07,5.10
2018,04,23,01,08,5.10
2018,04,23,01,09,5.10
2018,04,23,01,10,5.00
2018,04,23,01,11,5.00
2018,04,23,01,12,4.90
2018,04,23,01,13,4.90
2018,04,23,01,14,4.90
2018,04,23,01,15,4.80
2018,04,23,01,16,4.80
2018,04,23,01,17,4.80
2018,04,23,01,18,4.80
2018,04,23,01,19,4.70
2018,04,23,01,20,4.70
2018,04,23,01,21,4.70
2018,04,23,01,22,4.70
2018,04,23,01,23,4.70
2018,04,23,01,24,4.70
2018,04,23,01,25,4.70
2018,04,23,01,26,4.60
2018,04,23,01,27,4.60
2018,04,23,01,28,4.60
2018,04,23,01,29,4.60
2018,04,23,01,30,4.60
2018,04,23,01,31,4.60
2018,04,23,01,32,4.60
2018,04,23,01,33,4.60
2018,04,23,01,34,4.60
2018,04,23,01,35,4.50
2018,04,23,01,36,4.50
2018,04,23,01,37,4.50
2018,04,23,01,38,4.50
2018,04,23,01,39,4.50
2018,04,23,01,40,4.50
2018,04,23,01,41,4.50
2018,04,23,01,42,4.40
2018,04,23,01,43,4.40
2018,04,23,01,44,4.40
2018,04,23,01,45,4.40
2018,04,23,01,46,4.40
2018,04,23,01,47,4.40
2018,04,23,01,48,4.30
2018,04,23,01,49,4.30
2018,04,23,01,50,4.30
2018,04,23,01,51,4.30
2018,04,23,01,52,4.30
2018,04,23,01,53,4.30
2018,04,23,01,54,4.30
2018,04,23,01,55,4.30
2018,04,23,01,56,4.30
2018,04,23,01,57,4.30
2018,04,23,01,58,4.30
2018,04,23,01,59,4.30
2018,04,23,02,00,4.30
2018,04,23,02,01,4.30
2018,04,23,02,02,4.30
2018,04,23,02,03,4.30
2018,04,23,02,04,4.20
2018,04,23,02,05,4.20
2018,04,23,02,06,4.20
2018,04,23,02,07,4.20
2018,04,23,02,08,4.20
2018,04,23,02,09,4.20
2018,04,23,02,10,4.20
2018,04,23,02,11,4.20
2018,04,23,02,12,4.20
2018,04,23,02,13,4.20
2018,04,23,02,14,4.20
2018,04,23,02,15,4.20
2018,04,23,02,16,4.20
2018,04,23,02,17,4.20
2018,04,23,02,18,4.20
2018,04,23,02,19,4.20
2018,04,23,02,20,4.30
2018,04,23,02,21,4.30
2018,04,23,02,22,4.30
2018,04,23,02,23,4.30
2018,04,23,02,24,4.30
2018,04,23,02,25,4.30
2018,04,23,02,26,4.30
2018,04,23,02,27,4.30
2018,04,23,02,28,4.30
2018,04,23,02,29,4.30
2018,04,23,02,30,4.20
2018,04,23,02,31,4.20
2018,04,23,02,32,4.20
2018,04,23,02,33,4.20
2018,04,23,02,34,4.20
2018,04,23,02,35,4.20
2018,04,23,02,36,4.30
2018,04,23,02,37,4.20
2018,04,23,02,38,4.20
2018,04,23,02,39,4.20
2018,04,23,02,40,4.20
2018,04,23,02,41,4.20
2018,04,23,02,42,4.20
2018,04,23,02,43,4.20
2018,04,23,02,44,4.20
2018,04,23,02,45,4.20
2018,04,23,02,46,4.20
2018,04,23,02,47,4.20
2018,04,23,02,48,4.20
2018,04,23,02,49,4.20
2018,04,23,02,50,4.20
2018,04,23,02,51,4.20
2018,04,23,02,52,4.20
2018,04,23,02,53,4.20
2018,04,23,02,54,4.20
2018,04,23,02,55,4.20
2018,04,23,02,56,4.20
2018,04,23,02,57,4.10
2018,04,23,02,58,4.10
2018,04,23,02,59,4.10
2018,04,23,03,00,4.10
2018,04,23,03,01,4.10
2018,04,23,03,02,4.10
2018,04,23,03,06,3.90
2018,04,23,03,07,3.90
2018,04,23,03,08,3.90
2018,04,23,03,09,3.90
2018,04,23,03,10,3.90
2018,04,23,03,11,3.90
2018,04,23,03,12,3.80
2018,04,23,03,13,3.80
2018,04,23,03,14,3.80
2018,04,23,03,15,3.80
2018,04,23,03,16,3.80
2018,04,23,03,17,3.80
2018,04,23,03,18,3.80
2018,04,23,03,19,3.80
2018,04,23,03,20,3.70
2018,04,23,03,21,3.70
2018,04,23,03,22,3.70
2018,04,23,03,23,3.70
2018,04,23,03,24,3.70
2018,04,23,03,25,3.70
2018,04,23,03,26,3.70
2018,04,23,03,27,3.70
2018,04,23,03,28,3.70
2018,04,23,03,29,3.70
2018,04,23,03,30,3.70
2018,04,23,03,31,3.70
2018,04,23,03,32,3.70
2018,04,23,03,33,3.70
2018,04,23,03,34,3.70
2018,04,23,03,35,3.70
2018,04,23,03,36,3.70
2018,04,23,03,37,3.70
2018,04,23,03,38,3.70
2018,04,23,03,39,3.70
2018,04,23,03,40,3.70
2018,04,23,03,41,3.70
2018,04,23,03,42,3.70
2018,04,23,03,43,3.70
2018,04,23,03,44,3.70
2018,04,23,03,45,3.70
2018,04,23,03,46,3.60
2018,04,23,03,47,3.60
2018,04,23,03,48,3.60
2018,04,23,03,49,3.60
2018,04,23,03,50,3.60
2018,04,23,03,51,3.60
2018,04,23,03,52,3.60
2018,04,23,03,53,3.60
2018,04,23,03,54,3.60
2018,04,23,03,55,3.60
2018,04,23,03,56,3.60
2018,04,23,03,57,3.60
2018,04,23,03,58,3.70
2018,04,23,03,59,3.70
2018,04,23,04,00,3.70
2018,04,23,04,01,3.70
2018,04,23,04,02,3.70
2018,04,23,04,03,3.70
2018,04,23,04,04,3.70
2018,04,23,04,05,3.70
2018,04,23,04,06,3.60
2018,04,23,04,07,3.60
2018,04,23,04,08,3.60
2018,04,23,04,09,3.60
2018,04,23,04,10,3.60
2018,04,23,04,11,3.60
2018,04,23,04,12,3.50
2018,04,23,04,13,3.50
2018,04,23,04,14,3.50
2018,04,23,04,15,3.50
2018,04,23,04,16,3.50
2018,04,23,04,17,3.50
2018,04,23,04,18,3.50
2018,04,23,04,19,3.50
2018,04,23,04,20,3.50
2018,04,23,04,21,3.50
2018,04,23,04,22,3.50
2018,04,23,04,23,3.50
2018,04,23,04,24,3.50
2018,04,23,04,25,3.50
2018,04,23,04,26,3.50
2018,04,23,04,27,3.50
2018,04,23,04,28,3.50
2018,04,23,04,29,3.40
2018,04,23,04,30,3.40
2018,04,23,04,31,3.40
2018,04,23,04,32,3.40
2018,04,23,04,33,3.40
2018,04,23,04,34,3.40
2018,04,23,04,35,3.40
2018,04,23,04,36,3.40
2018,04,23,04,37,3.40
2018,04,23,04,38,3.40
2018,04,23,04,39,3.40
2018,04,23,04,40,3.40
2018,04,23,04,41,3.40
2018,04,23,04,42,3.40
2018,04,23,04,43,3.40
2018,04,23,04,44,3.40
2018,04,23,04,45,3.30
2018,04,23,04,46,3.40
2018,04,23,04,47,3.30
2018,04,23,04,48,3.30
2018,04,23,04,49,3.30
2018,04,23,04,50,3.30
2018,04,23,04,51,3.30
2018,04,23,04,52,3.20
2018,04,23,04,53,3.20
2018,04,23,04,54,3.20
2018,04,23,04,55,3.20
2018,04,23,04,56,3.20
2018,04,23,04,57,3.20
2018,04,23,04,58,3.20
2018,04,23,04,59,3.10
2018,04,23,05,00,3.10
2018,04,23,05,01,3.10
2018,04,23,05,02,3.10
2018,04,23,05,03,3.10
2018,04,23,05,04,3.10
2018,04,23,05,05,3.10
2018,04,23,05,06,3.10
2018,04,23,05,07,3.10
2018,04,23,05,08,3.10
2018,04,23,05,09,3.10
2018,04,23,05,10,3.10
2018,04,23,05,11,3.10
2018,04,23,05,12,3.20
2018,04,23,05,13,3.10
2018,04,23,05,14,3.10
2018,04,23,05,15,3.10
2018,04,23,05,16,3.10
2018,04,23,05,17,3.10
2018,04,23,05,18,3.10
2018,04,23,05,19,3.10
2018,04,23,05,20,3.10
2018,04,23,05,21,3.10
2018,04,23,05,22,3.10
2018,04,23,05,23,3.10
2018,04,23,05,24,3.00
2018,04,23,05,25,3.00
2018,04,23,05,26,3.10
2018,04,23,05,27,3.00
2018,04,23,05,28,3.00
2018,04,23,05,29,3.00
2018,04,23,05,30,3.00
2018,04,23,05,31,3.00
2018,04,23,05,32,3.00
2018,04,23,05,33,3.00
2018,04,23,05,34,2.90
2018,04,23,05,35,3.00
2018,04,23,05,36,2.90
2018,04,23,05,37,3.00
2018,04,23,05,38,3.00
2018,04,23,05,39,3.00
2018,04,23,05,40,3.10
2018,04,23,05,41,3.10
2018,04,23,05,42,3.10
2018,04,23,05,43,3.10
2018,04,23,05,44,3.10
2018,04,23,05,45,3.10
2018,04,23,05,46,3.00
2018,04,23,05,47,3.00
2018,04,23,05,48,3.00
2018,04,23,05,49,3.00
2018,04,23,05,50,2.90
2018,04,23,05,51,2.90
2018,04,23,05,52,2.90
2018,04,23,05,53,2.90
2018,04,23,05,54,2.90
2018,04,23,05,55,2.80
2018,04,23,05,56,2.80
2018,04,23,05,57,2.80
2018,04,23,05,58,2.80
2018,04,23,05,59,2.80
2018,04,23,06,00,2.80
2018,04,23,06,01,2.80
2018,04,23,06,02,2.80
2018,04,23,06,03,2.80
2018,04,23,06,04,2.80
2018,04,23,06,05,2.80
2018,04,23,06,06,2.80
2018,04,23,06,07,2.80
2018,04,23,06,08,2.80
2018,04,23,06,09,2.80
2018,04,23,06,10,2.80
2018,04,23,06,11,2.80
2018,04,23,06,12,2.80
2018,04,23,06,13,2.80
2018,04,23,06,14,2.80
2018,04,23,06,15,2.80
2018,04,23,06,16,2.80
2018,04,23,06,17,2.80
2018,04,23,06,18,2.80
2018,04,23,06,19,2.80
2018,04,23,06,20,2.80
2018,04,23,06,21,2.80
2018,04,23,06,22,2.80
2018,04,23,06,23,2.80
2018,04,23,06,24,2.80
2018,04,23,06,25,2.80
2018,04,23,06,26,2.80
2018,04,23,06,27,2.80
2018,04,23,06,28,2.80
2018,04,23,06,29,2.80
2018,04,23,06,30,2.80
2018,04,23,06,31,2.80
2018,04,23,06,32,2.80
2018,04,23,06,33,2.80
2018,04,23,06,34,2.80
2018,04,23,06,35,2.80
2018,04,23,06,36,2.80
2018,04,23,06,37,2.80
2018,04,23,06,38,2.80
2018,04,23,06,39,2.80
2018,04,23,06,40,2.80
2018,04,23,06,41,2.80
2018,04,23,06,42,2.80
2018,04,23,06,43,2.80
2018,04,23,06,44,2.80
2018,04,23,06,45,2.90
2018,04,23,06,46,2.90
2018,04,23,06,47,2.90
2018,04,23,06,48,2.90
2018,04,23,06,49,2.90
2018,04,23,06,50,2.90
2018,04,23,06,51,3.00
2018,04,23,06,52,3.00
2018,04,23,06,53,3.00
2018,04,23,06,54,3.00
2018,04,23,06,55,3.10
2018,04,23,06,56,3.10
2018,04,23,06,57,3.10
2018,04,23,06,58,3.10
2018,04,23,06,59,3.20
2018,04,23,07,00,3.20
2018,04,23,07,01,3.20
2018,04,23,07,02,3.30
2018,04,23,07,03,3.30
2018,04,23,07,04,3.40
2018,04,23,07,05,3.40
2018,04,23,07,06,3.50
2018,04,23,07,07,3.60
2018,04,23,07,08,3.70
2018,04,23,07,09,3.80
2018,04,23,07,10,3.90
2018,04,23,07,11,4.00
2018,04,23,07,12,4.10
2018,04,23,07,13,4.20
2018,04,23,07,14,4.30
2018,04,23,07,15,4.50
2018,04,23,07,16,4.50
2018,04,23,07,17,4.60
2018,04,23,07,18,4.70
2018,04,23,07,19,4.80
2018,04,23,07,20,4.90
2018,04,23,07,21,4.90
2018,04,23,07,22,5.00
2018,04,23,07,23,5.10
2018,04,23,07,24,5.20
2018,04,23,07,25,5.20
2018,04,23,07,26,5.30
2018,04,23,07,27,5.30
2018,04,23,07,28,5.40
2018,04,23,07,29,5.40
2018,04,23,07,30,5.50
2018,04,23,07,31,5.60
2018,04,23,07,32,5.60
2018,04,23,07,33,5.70
2018,04,23,07,34,5.70
2018,04,23,07,35,5.80
2018,04,23,07,36,5.80
2018,04,23,07,37,5.90
2018,04,23,07,38,5.90
2018,04,23,07,39,5.90
2018,04,23,07,40,6.00
2018,04,23,07,41,6.00
2018,04,23,07,42,6.10
2018,04,23,07,43,6.10
2018,04,23,07,44,6.20
2018,04,23,07,45,6.20
2018,04,23,07,46,6.20
2018,04,23,07,47,6.30
2018,04,23,07,48,6.30
2018,04,23,07,49,6.30
2018,04,23,07,50,6.40
2018,04,23,07,51,6.40
2018,04,23,07,52,6.50
2018,04,23,07,53,6.60
2018,04,23,07,54,6.60
2018,04,23,07,55,6.60
2018,04,23,07,56,6.70
2018,04,23,07,57,6.70
2018,04,23,07,58,6.70
2018,04,23,07,59,6.80
2018,04,23,08,00,6.80
2018,04,23,08,01,6.80
2018,04,23,08,02,6.90
2018,04,23,08,03,6.90
2018,04,23,08,04,6.90
2018,04,23,08,05,7.00
2018,04,23,08,06,7.00
2018,04,23,08,07,7.10
2018,04,23,08,08,7.20
2018,04,23,08,09,7.20
2018,04,23,08,10,7.20
2018,04,23,08,11,7.30
2018,04,23,08,12,7.30
2018,04,23,08,13,7.40
2018,04,23,08,14,7.40
2018,04,23,08,15,7.50
2018,04,23,08,16,7.50
2018,04,23,08,17,7.60
2018,04,23,08,18,7.70
2018,04,23,08,19,7.70
2018,04,23,08,20,7.80
2018,04,23,08,21,7.80
2018,04,23,08,22,7.90
2018,04,23,08,23,8.00
2018,04,23,08,24,8.00
2018,04,23,08,25,8.10
2018,04,23,08,26,8.20
2018,04,23,08,27,8.20
2018,04,23,08,28,8.30
2018,04,23,08,29,8.40
2018,04,23,08,30,8.40
2018,04,23,08,31,8.50
2018,04,23,08,32,8.60
2018,04,23,08,33,8.70
2018,04,23,08,34,8.80
2018,04,23,08,35,8.90
2018,04,23,08,36,8.90
2018,04,23,08,37,9.00
2018,04,23,08,38,9.10
2018,04,23,08,39,9.20
2018,04,23,08,40,9.20
2018,04,23,08,41,9.30
2018,04,23,08,42,9.40
2018,04,23,08,43,9.40
2018,04,23,08,44,9.50
2018,04,23,08,45,9.60
2018,04,23,08,46,9.70
2018,04,23,08,47,9.70
2018,04,23,08,48,9.80
2018,04,23,08,49,9.80
2018,04,23,08,50,9.80
2018,04,23,08,51,9.90
2018,04,23,08,52,9.90
2018,04,23,08,53,9.90
2018,04,23,08,54,9.90
2018,04,23,08,55,9.90
2018,04,23,08,56,9.90
2018,04,23,08,57,9.90
2018,04,23,08,58,9.90
2018,04,23,08,59,9.90
2018,04,23,09,00,9.90
2018,04,23,09,01,9.90
2018,04,23,09,02,9.90
2018,04,23,09,03,9.90
2018,04,23,09,04,9.90
2018,04,23,09,05,9.90
2018,04,23,09,06,10.00
2018,04,23,09,07,10.00
2018,04,23,09,08,10.00
2018,04,23,09,09,10.00
2018,04,23,09,10,10.10
2018,04,23,09,11,10.10
2018,04,23,09,12,10.10
2018,04,23,09,13,10.10
2018,04,23,09,14,10.10
2018,04,23,09,15,10.10
2018,04,23,09,16,10.10
2018,04,23,09,17,10.20
2018,04,23,09,18,10.20
2018,04,23,09,19,10.20
2018,04,23,09,20,10.30
2018,04,23,09,21,10.30
2018,04,23,09,22,10.40
2018,04,23,09,23,10.40
2018,04,23,09,24,10.50
2018,04,23,09,25,10.50
2018,04,23,09,26,10.50
2018,04,23,09,27,10.60
2018,04,23,09,28,10.70
2018,04,23,09,29,10.70
2018,04,23,09,30,10.70
2018,04,23,09,31,10.70
2018,04,23,09,32,10.70
2018,04,23,09,33,10.80
2018,04,23,09,34,10.80
2018,04,23,09,35,10.80
2018,04,23,09,36,10.90
2018,04,23,09,37,11.00
2018,04,23,09,38,11.10
2018,04,23,09,39,11.10
2018,04,23,09,40,11.20
2018,04,23,09,41,11.20
2018,04,23,09,42,11.30
2018,04,23,09,43,11.30
2018,04,23,09,44,11.30
2018,04,23,09,45,11.40
2018,04,23,09,46,11.40
2018,04,23,09,47,11.40
2018,04,23,09,48,11.40
2018,04,23,09,49,11.40
2018,04,23,09,50,11.30
2018,04,23,09,51,11.30
2018,04,23,09,52,11.30
2018,04,23,09,53,11.40
2018,04,23,09,54,11.40
2018,04,23,09,55,11.40
2018,04,23,09,56,11.40
2018,04,23,09,57,11.40
2018,04,23,09,58,11.50
2018,04,23,09,59,11.50
2018,04,23,10,00,11.60
2018,04,23,10,01,11.60
2018,04,23,10,02,11.60
2018,04,23,10,03,11.70
2018,04,23,10,04,11.70
2018,04,23,10,05,11.70
2018,04,23,10,06,11.70
2018,04,23,10,07,11.80
2018,04,23,10,08,11.80
2018,04,23,10,09,11.90
2018,04,23,10,10,11.90
2018,04,23,10,11,12.00
2018,04,23,10,12,12.10
2018,04,23,10,13,12.10
2018,04,23,10,14,12.10
2018,04,23,10,15,12.20
2018,04,23,10,16,12.20
2018,04,23,10,17,12.20
2018,04,23,10,18,12.20
2018,04,23,10,19,12.20
2018,04,23,10,20,12.20
2018,04,23,10,21,12.20
2018,04,23,10,22,12.30
2018,04,23,10,23,12.30
2018,04,23,10,24,12.30
2018,04,23,10,25,12.40
2018,04,23,10,26,12.60
2018,04,23,10,27,12.70
2018,04,23,10,28,12.70
2018,04,23,10,29,12.80
2018,04,23,10,30,12.80
2018,04,23,10,31,12.90
2018,04,23,10,32,13.00
2018,04,23,10,33,13.10
2018,04,23,10,34,13.10
2018,04,23,10,35,13.10
2018,04,23,10,36,13.20
2018,04,23,10,37,13.20
2018,04,23,10,38,13.30
2018,04,23,10,39,13.40
2018,04,23,10,40,13.50
2018,04,23,10,41,13.50
2018,04,23,10,42,13.60
2018,04,23,10,43,13.70
2018,04,23,10,44,13.80
2018,04,23,10,45,13.90
2018,04,23,10,46,13.90
2018,04,23,10,47,14.00
2018,04,23,10,48,14.00
2018,04,23,10,49,14.00
2018,04,23,10,50,14.00
2018,04,23,10,51,14.00
2018,04,23,10,52,14.00
2018,04,23,10,53,14.00
2018,04,23,10,54,14.10
2018,04,23,10,55,14.10
2018,04,23,10,56,14.10
2018,04,23,10,57,14.10
2018,04,23,10,58,14.00
2018,04,23,10,59,14.00
2018,04,23,11,00,13.90
2018,04,23,11,01,13.90
2018,04,23,11,02,13.80
2018,04,23,11,03,13.80
2018,04,23,11,04,13.70
2018,04,23,11,05,13.70
2018,04,23,11,06,13.60
2018,04,23,11,07,13.60
2018,04,23,11,08,13.60
2018,04,23,11,09,13.60
2018,04,23,11,10,13.70
2018,04,23,11,11,13.70
2018,04,23,11,12,13.70
2018,04,23,11,13,13.70
2018,04,23,11,14,13.80
2018,04,23,11,15,13.80
2018,04,23,11,16,13.80
2018,04,23,11,17,13.90
2018,04,23,11,18,14.00
2018,04,23,11,19,14.00
2018,04,23,11,20,14.00
2018,04,23,11,21,14.00
2018,04,23,11,22,13.90
2018,04,23,11,23,13.90
2018,04,23,11,24,13.90
2018,04,23,11,25,13.90
2018,04,23,11,26,13.90
2018,04,23,11,27,14.00
2018,04,23,11,28,14.10
2018,04,23,11,29,14.20
2018,04,23,11,30,14.20
2018,04,23,11,31,14.30
2018,04,23,11,32,14.30
2018,04,23,11,33,14.40
2018,04,23,11,34,14.40
2018,04,23,11,35,14.40
2018,04,23,11,36,14.50
2018,04,23,11,37,14.50
2018,04,23,11,38,14.60
2018,04,23,11,39,14.70
2018,04,23,11,40,14.80
2018,04,23,11,41,14.90
2018,04,23,11,42,15.00
2018,04,23,11,43,15.10
2018,04,23,11,44,15.20
2018,04,23,11,45,15.30
2018,04,23,11,46,15.30
2018,04,23,11,47,15.30
2018,04,23,11,48,15.30
2018,04,23,11,49,15.40
2018,04,23,11,50,15.40
2018,04,23,11,51,15.50
2018,04,23,11,52,15.60
2018,04,23,11,53,15.60
2018,04,23,11,54,15.70
2018,04,23,11,55,15.70
2018,04,23,11,56,15.80
2018,04,23,11,57,15.90
2018,04,23,11,58,16.00
2018,04,23,11,59,16.10
2018,04,23,12,00,16.20
2018,04,23,12,01,16.30
2018,04,23,12,02,16.40
2018,04,23,12,03,16.40
2018,04,23,12,04,16.40
2018,04,23,12,05,16.40
2018,04,23,12,06,16.40
2018,04,23,12,07,16.40
2018,04,23,12,08,16.30
2018,04,23,12,09,16.20
2018,04,23,12,10,16.20
2018,04,23,12,11,16.20
2018,04,23,12,12,16.20
2018,04,23,12,13,16.20
2018,04,23,12,14,16.20
2018,04,23,12,15,16.30
2018,04,23,12,16,16.30
2018,04,23,12,17,16.40
2018,04,23,12,18,16.40
2018,04,23,12,19,16.50
2018,04,23,12,20,16.60
2018,04,23,12,21,16.60
2018,04,23,12,22,16.70
2018,04,23,12,23,16.70
2018,04,23,12,24,16.80
2018,04,23,12,25,16.80
2018,04,23,12,26,16.80
2018,04,23,12,27,16.90
2018,04,23,12,28,16.90
2018,04,23,12,29,16.90
2018,04,23,12,30,17.00
2018,04,23,12,31,17.10
2018,04,23,12,32,17.10
2018,04,23,12,33,17.20
2018,04,23,12,34,17.20
2018,04,23,12,35,17.20
2018,04,23,12,36,17.10
2018,04,23,12,37,17.00
2018,04,23,12,38,16.90
2018,04,23,12,39,16.80
2018,04,23,12,40,16.70
2018,04,23,12,41,16.70
2018,04,23,12,42,16.70
2018,04,23,12,43,16.60
2018,04,23,12,44,16.60
2018,04,23,12,45,16.50
2018,04,23,12,46,16.50
2018,04,23,12,47,16.50
2018,04,23,12,48,16.40
2018,04,23,12,49,16.40
2018,04,23,12,50,16.50
2018,04,23,12,51,16.60
2018,04,23,12,52,16.60
2018,04,23,12,53,16.70
2018,04,23,12,54,16.80
2018,04,23,12,55,16.90
2018,04,23,12,56,16.90
2018,04,23,12,57,16.90
2018,04,23,12,58,16.80
2018,04,23,12,59,16.80
2018,04,23,13,00,16.80
2018,04,23,13,01,16.70
2018,04,23,13,02,16.70
2018,04,23,13,03,16.70
2018,04,23,13,04,16.70
2018,04,23,13,05,16.80
2018,04,23,13,06,16.90
2018,04,23,13,07,17.00
2018,04,23,13,08,17.10
2018,04,23,13,09,17.20
2018,04,23,13,10,17.30
2018,04,23,13,11,17.30
2018,04,23,13,12,17.30
2018,04,23,13,13,17.30
2018,04,23,13,14,17.30
2018,04,23,13,15,17.20
2018,04,23,13,16,17.20
2018,04,23,13,17,17.10
2018,04,23,13,18,17.10
2018,04,23,13,19,17.00
2018,04,23,13,20,17.00
2018,04,23,13,21,17.00
2018,04,23,13,22,16.90
2018,04,23,13,23,16.80
2018,04,23,13,24,16.70
2018,04,23,13,25,16.60
2018,04,23,13,26,16.60
2018,04,23,13,27,16.50
2018,04,23,13,28,16.40
2018,04,23,13,29,16.40
2018,04,23,13,30,16.40
2018,04,23,13,31,16.40
2018,04,23,13,32,16.40
2018,04,23,13,33,16.40
2018,04,23,13,34,16.40
2018,04,23,13,35,16.30
2018,04,23,13,36,16.30
2018,04,23,13,37,16.30
2018,04,23,13,38,16.20
2018,04,23,13,39,16.20
2018,04,23,13,40,16.20
2018,04,23,13,41,16.20
2018,04,23,13,42,16.20
2018,04,23,13,43,16.20
2018,04,23,13,44,16.20
2018,04,23,13,45,16.20
2018,04,23,13,46,16.20
2018,04,23,13,47,16.20
2018,04,23,13,48,16.20
2018,04,23,13,49,16.20
2018,04,23,13,50,16.20
2018,04,23,13,51,16.20
2018,04,23,13,52,16.20
2018,04,23,13,53,16.10
2018,04,23,13,54,16.10
2018,04,23,13,55,16.10
2018,04,23,13,56,16.10
2018,04,23,13,57,16.10
2018,04,23,13,58,16.10
2018,04,23,13,59,16.20
2018,04,23,14,00,16.20
2018,04,23,14,01,16.20
2018,04,23,14,02,16.10
2018,04,23,14,03,16.10
2018,04,23,14,04,16.00
2018,04,23,14,05,16.00
2018,04,23,14,06,16.00
2018,04,23,14,07,16.10
2018,04,23,14,08,16.10
2018,04,23,14,09,16.10
2018,04,23,14,10,16.10
2018,04,23,14,11,16.10
2018,04,23,14,12,16.10
2018,04,23,14,13,16.10
2018,04,23,14,14,16.20
2018,04,23,14,15,16.20
2018,04,23,14,16,16.20
2018,04,23,14,17,16.30
2018,04,23,14,18,16.30
2018,04,23,14,19,16.30
2018,04,23,14,20,16.30
2018,04,23,14,21,16.40
2018,04,23,14,22,16.50
2018,04,23,14,23,16.50
2018,04,23,14,24,16.60
2018,04,23,14,25,16.70
2018,04,23,14,26,16.70
2018,04,23,14,27,16.70
2018,04,23,14,28,16.80
2018,04,23,14,29,16.80
2018,04,23,14,30,16.80
2018,04,23,14,31,16.80
2018,04,23,14,32,16.80
2018,04,23,14,33,16.80
2018,04,23,14,34,16.80
2018,04,23,14,35,16.80
2018,04,23,14,36,16.90
2018,04,23,14,37,16.90
2018,04,23,14,38,16.90
2018,04,23,14,39,16.90
2018,04,23,14,40,17.00
2018,04,23,14,41,17.10
2018,04,23,14,42,17.10
2018,04,23,14,43,17.20
2018,04,23,14,44,17.20
2018,04,23,14,45,17.20
2018,04,23,14,46,17.20
2018,04,23,14,47,17.20
2018,04,23,14,48,17.10
2018,04,23,14,49,17.10
2018,04,23,14,50,17.10
2018,04,23,14,51,17.10
2018,04,23,14,52,17.10
2018,04,23,14,53,17.10
2018,04,23,14,54,17.10
2018,04,23,14,55,17.10
2018,04,23,14,56,17.10
2018,04,23,14,57,17.10
2018,04,23,14,58,17.10
2018,04,23,14,59,17.10
2018,04,23,15,00,17.00
2018,04,23,15,01,17.00
2018,04,23,15,02,17.00
2018,04,23,15,03,17.00
2018,04,23,15,04,17.00
2018,04,23,15,05,17.10
2018,04,23,15,06,17.10
2018,04,23,15,07,17.10
2018,04,23,15,08,17.10
2018,04,23,15,09,17.20
2018,04,23,15,10,17.20
2018,04,23,15,11,17.20
2018,04,23,15,12,17.20
2018,04,23,15,13,17.20
2018,04,23,15,14,17.20
2018,04,23,15,15,17.20
2018,04,23,15,16,17.10
2018,04,23,15,17,17.10
2018,04,23,15,18,17.10
2018,04,23,15,19,17.00
2018,04,23,15,20,17.00
2018,04,23,15,21,17.00
2018,04,23,15,22,17.00
2018,04,23,15,23,17.00
2018,04,23,15,24,17.00
2018,04,23,15,25,17.10
2018,04,23,15,26,17.10
2018,04,23,15,27,17.10
2018,04,23,15,28,17.10
2018,04,23,15,29,17.20
2018,04,23,15,30,17.20
2018,04,23,15,31,17.20
2018,04,23,15,32,17.20
2018,04,23,15,33,17.20
2018,04,23,15,34,17.20
2018,04,23,15,35,17.30
2018,04,23,15,36,17.30
2018,04,23,15,37,17.30
2018,04,23,15,38,17.30
2018,04,23,15,39,17.30
2018,04,23,15,40,17.30
2018,04,23,15,41,17.30
2018,04,23,15,42,17.30
2018,04,23,15,43,17.30
2018,04,23,15,44,17.40
2018,04,23,15,45,17.50
2018,04,23,15,46,17.50
2018,04,23,15,47,17.60
2018,04,23,15,48,17.60
2018,04,23,15,49,17.60
2018,04,23,15,50,17.60
2018,04,23,15,51,17.60
2018,04,23,15,52,17.70
2018,04,23,15,53,17.60
2018,04,23,15,54,17.60
2018,04,23,15,55,17.70
2018,04,23,15,56,17.70
2018,04,23,15,57,17.70
2018,04,23,15,58,17.70
2018,04,23,15,59,17.70
2018,04,23,16,00,17.80
2018,04,23,16,01,17.80
2018,04,23,16,02,17.80
2018,04,23,16,03,17.80
2018,04,23,16,04,17.80
2018,04,23,16,05,17.80
2018,04,23,16,06,17.90
2018,04,23,16,07,17.90
2018,04,23,16,08,17.90
2018,04,23,16,09,18.00
2018,04,23,16,10,18.10
2018,04,23,16,11,18.10
2018,04,23,16,12,18.10
2018,04,23,16,13,18.20
2018,04,23,16,14,18.20
2018,04,23,16,15,18.20
2018,04,23,16,16,18.30
2018,04,23,16,17,18.30
2018,04,23,16,18,18.30
2018,04,23,16,19,18.30
2018,04,23,16,20,18.30
2018,04,23,16,21,18.30
2018,04,23,16,22,18.30
2018,04,23,16,23,18.30
2018,04,23,16,24,18.30
2018,04,23,16,25,18.40
2018,04,23,16,26,18.40
2018,04,23,16,27,18.40
2018,04,23,16,28,18.50
2018,04,23,16,29,18.50
2018,04,23,16,30,18.50
2018,04,23,16,31,18.60
2018,04,23,16,32,18.60
2018,04,23,16,33,18.60
2018,04,23,16,34,18.70
2018,04,23,16,35,18.70
2018,04,23,16,36,18.80
2018,04,23,16,37,18.80
2018,04,23,16,38,18.80
2018,04,23,16,39,18.90
2018,04,23,16,40,19.00
2018,04,23,16,41,19.00
2018,04,23,16,42,19.10
2018,04,23,16,43,19.10
2018,04,23,16,44,19.20
2018,04,23,16,45,19.20
2018,04,23,16,46,19.30
2018,04,23,16,47,19.30
2018,04,23,16,48,19.30
2018,04,23,16,49,19.30
2018,04,23,16,50,19.20
2018,04,23,16,51,19.10
2018,04,23,16,52,19.10
2018,04,23,16,53,19.00
2018,04,23,16,54,18.90
2018,04,23,16,55,18.90
2018,04,23,16,56,18.90
2018,04,23,16,57,19.00
2018,04,23,16,58,19.00
2018,04,23,16,59,19.10
2018,04,23,17,00,19.10
2018,04,23,17,01,19.20
2018,04,23,17,02,19.20
2018,04,23,17,03,19.10
2018,04,23,17,04,19.10
2018,04,23,17,05,19.00
2018,04,23,17,06,18.90
2018,04,23,17,07,18.80
2018,04,23,17,08,18.70
2018,04,23,17,09,18.50
2018,04,23,17,10,18.40
2018,04,23,17,11,18.30
2018,04,23,17,12,18.20
2018,04,23,17,13,18.10
2018,04,23,17,14,18.00
2018,04,23,17,15,17.90
2018,04,23,17,16,17.80
2018,04,23,17,17,17.80
2018,04,23,17,18,17.80
2018,04,23,17,19,17.80
2018,04,23,17,20,17.90
2018,04,23,17,21,17.90
2018,04,23,17,22,18.00
2018,04,23,17,23,18.00
2018,04,23,17,24,18.10
2018,04,23,17,25,18.10
2018,04,23,17,26,18.20
2018,04,23,17,27,18.20
2018,04,23,17,28,18.20
2018,04,23,17,29,18.30
2018,04,23,17,30,18.30
2018,04,23,17,31,18.40
2018,04,23,17,32,18.50
2018,04,23,17,33,18.60
2018,04,23,17,34,18.60
2018,04,23,17,35,18.60
2018,04,23,17,36,18.60
2018,04,23,17,37,18.60
2018,04,23,17,38,18.60
2018,04,23,17,39,18.60
2018,04,23,17,40,18.60
2018,04,23,17,41,18.60
2018,04,23,17,42,18.70
2018,04,23,17,43,18.70
2018,04,23,17,44,18.70
2018,04,23,17,45,18.70
2018,04,23,17,46,18.60